Current weather by "City, St" or "zip code"  
 

Current Conditions: Tyndall Drone Runway, FL

Fair


53.0 F

Last Updated on Oct 31 2020, 4:56 am CDT
Humidity: 86%
Wind Speed: NE 8.1 mph
Barometer 30.16 in
Dewpoint: 48.7 F
Visibility: 10.00 mi
Precip: --
Heat Index: NA
Wind Chill: 50 F
Current conditions at:

Tyndall Drone Runway, FL (KTDR)

Lat: 30.0333 Lon: 85.5333

Local Radar Image active severe weather and emergency alerts image image weather storm and storm spotter reports image weather observation monitoring service image
Local
Radar
Active
Alerts
Storm Reports Obs
Monitoring

Sign-up For Email & Text Message Weather Alert Notification Services



Advertise Here

Observation History for Tyndall Drone Runway, FL


Time Wind
(mph)
Vis
(mi)
Weather Precip (in) Temperature (F) Relative
Humidity
Wind
Chill
(F)
Heat
Index
(F)
Pressure
Air Dwpt altimeter
(in)
sea level
(mb)
Rmks
4:56 am CDT NE 8.1 10.00 Fair -- 53.0 48.7 86% 50 NA 30.16 1021.7
3:56 am CDT NE 6.9 10.00 Fair -- 53.0 48.6 84% 51 NA 30.15 1021.3
2:56 am CDT NE 8.1 10.00 Fair -- 55.0 48.7 81% 53 NA 30.14 1021.0
1:56 am CDT NE 12.7 10.00 Fair -- 56.0 49.6 81% 53 NA 30.14 1021.0
12:56 am CDT NE 12.7 10.00 Fair -- 57.0 50.0 79% 54 NA 30.14 1021.0
11:56 pm CDT NE 10.4 10.00 Fair -- 58.0 50.7 78% 56 NA 30.14 1021.0
10:56 pm CDT N 12.7 10.00 Fair -- 58.0 50.7 77% 55 NA 30.15 1021.3
9:56 pm CDT N 13.8 10.00 Fair -- 60.0 51.4 75% 58 NA 30.14 1021.0
8:56 pm CDT N 10.4 10.00 Fair -- 60.0 52.0 74% 58 NA 30.13 1020.7
7:56 pm CDT N 9.2 10.00 Fair -- 62.0 51.8 70% 61 NA 30.12 1020.3
6:56 pm CDT N 10.4 10.00 Fair -- 62.0 51.8 69% 61 NA 30.10 1019.7
5:56 pm CDT N 10.4 10.00 Fair -- 64.0 51.4 65% NA NA 30.09 1019.3
4:56 pm CDT N 8.1 10.00 Fair -- 68.0 51.4 55% NA NA 30.06 1018.3
3:56 pm CDT N 8.1 10.00 Fair -- 70.0 52.3 54% NA NA 30.05 1018.0
2:56 pm CDT N 9.2 10.00 Fair -- 69.0 51.8 55% NA NA 30.05 1018.0
1:56 pm CDT N 5.8 10.00 Fair -- 68.0 51.8 57% NA NA 30.07 1018.6
12:56 pm CDT N 6.9 10.00 Fair -- 66.0 51.6 60% NA NA 30.09 1019.3
11:56 am CDT N 9.2 10.00 Fair -- 64.0 50.2 62% NA NA 30.11 1020.0
10:56 am CDT N 11.5 10.00 Fair -- 60.0 48.9 67% 58 NA 30.12 1020.3
8:56 am CDT N 18.4 10.00 Mostly Cloudy -- 54.0 46.4 75% 49 NA 30.11 1020.0
7:56 am CDT N 17.3 10.00 A Few Clouds -- 51.0 45.3 81% 45 NA 30.09 1019.3
6:56 am CDT N 12.7 G 21.9 10.00 Fair -- 50.0 44.8 83% 45 NA 30.07 1018.6
5:56 am CDT N 13.8 10.00 Fair -- 51.0 44.2 79% 46 NA 30.05 1018.0

Regional Weather Observation


Tyndall Air Force Base, FL (KPAM)

Fair
56.0 F

Panama City - Northwest Florida Beaches International Airport, FL (KECP)

Fair
53.0 F

Tri-County Airport, FL (K1J0)

Fair
50.0 F

Marianna Municipal Airport, FL (KMAI)

Fair
50.0 F

Destin, Destin-Ft. Walton Beach Airport, FL (KDTS)

Fair
55.0 F

Valparaiso / Eglin Air Force Base, FL (KVPS)

Fair
50.0 F